Total_Precipitation_Accumulation
0.53 0.32 0.53 0.50 0.44 0.45 0.56 0.63 0.73 0.72 0.72 0.69 0.54 0.44 0.40 0.39 0.40 0.37 0.31 0.30 0.38 0.41 0.39 0.35 0.34 0.33 0.30 0.30 0.33 0.38 0.43 0.49 0.52 0.55 0.61 0.62 0.52 0.53 0.69 0.87 0.96 1.18 0.80
0.46 0.36 0.60 0.62 0.51 0.44 0.51 0.59 0.68 0.72 0.81 0.71 0.56 0.49 0.46 0.43 0.40 0.37 0.28 0.25 0.29 0.32 0.30 0.32 0.35 0.35 0.37 0.38 0.44 0.51 0.49 0.46 0.58 0.66 0.77 0.79 0.68 0.62 0.60 0.77 0.92 1.10 0.83
0.40 0.35 0.47 0.64 0.61 0.53 0.55 0.61 0.70 0.76 0.86 0.74 0.65 0.57 0.50 0.43 0.43 0.42 0.33 0.30 0.32 0.26 0.23 0.29 0.41 0.44 0.48 0.49 0.54 0.60 0.56 0.50 0.61 0.78 1.08 1.52 1.04 0.69 0.66 0.68 0.78 0.73 0.78
0.43 0.40 0.51 0.69 0.65 0.66 0.67 0.70 0.75 0.82 0.91 0.83 0.69 0.57 0.50 0.47 0.46 0.46 0.57 0.60 0.47 0.30 0.26 0.32 0.45 0.46 0.45 0.50 0.58 0.56 0.52 0.52 0.63 0.77 1.19 1.64 1.38 0.84 0.77 0.78 0.88 0.75 0.74
0.45 0.48 0.69 0.82 0.73 0.70 0.74 0.84 0.88 0.93 0.96 0.86 0.69 0.52 0.50 0.56 0.64 0.75 0.79 0.67 0.48 0.38 0.35 0.37 0.46 0.49 0.43 0.40 0.51 0.54 0.52 0.59 0.71 0.82 1.24 1.58 1.62 1.10 0.85 0.82 0.85 0.78 0.78
0.48 0.42 0.56 0.75 0.73 0.74 0.80 0.91 0.90 0.92 0.99 0.94 0.75 0.60 0.56 0.59 0.63 0.72 0.78 0.67 0.52 0.44 0.41 0.45 0.50 0.52 0.48 0.42 0.46 0.52 0.54 0.64 0.68 0.90 1.25 1.42 1.58 1.07 0.79 0.82 0.92 0.90 0.86
0.48 0.41 0.45 0.62 0.63 0.67 0.82 0.94 0.94 0.98 1.01 0.96 0.77 0.68 0.69 0.65 0.64 0.71 0.73 0.69 0.55 0.49 0.48 0.52 0.53 0.55 0.51 0.47 0.43 0.44 0.50 0.50 0.54 0.85 1.13 1.36 1.30 0.95 0.78 0.90 0.99 0.93 0.94
0.59 0.49 0.44 0.59 0.64 0.65 0.73 0.81 0.88 0.94 0.99 0.94 0.76 0.70 0.70 0.70 0.67 0.67 0.71 0.71 0.62 0.62 0.61 0.60 0.56 0.55 0.55 0.50 0.44 0.43 0.47 0.42 0.42 0.66 0.88 1.17 1.21 1.01 0.87 0.92 1.02 1.00 1.04
0.67 0.62 0.54 0.55 0.61 0.72 0.80 0.85 0.87 0.91 0.94 0.98 0.86 0.79 0.77 0.70 0.61 0.58 0.60 0.63 0.65 0.70 0.67 0.62 0.57 0.54 0.54 0.51 0.44 0.46 0.48 0.42 0.44 0.59 0.62 0.93 1.07 1.03 0.87 0.85 0.92 0.96 1.07
0.66 0.65 0.59 0.61 0.69 0.68 0.74 0.93 1.00 1.02 1.06 1.09 0.96 0.84 0.80 0.67 0.58 0.58 0.52 0.56 0.63 0.75 0.81 0.74 0.66 0.61 0.59 0.59 0.54 0.50 0.52 0.41 0.41 0.47 0.58 0.67 0.93 0.93 0.82 0.77 0.74 0.78 0.85
0.61 0.59 0.58 0.62 0.74 0.79 0.76 0.86 1.13 1.17 1.20 1.17 1.04 0.93 0.83 0.64 0.55 0.57 0.54 0.70 0.72 0.75 0.83 0.85 0.83 0.75 0.69 0.62 0.61 0.55 0.43 0.36 0.47 0.50 0.54 0.60 0.82 0.86 0.82 0.75 0.70 0.67 0.69
0.63 0.58 0.56 0.55 0.61 0.69 0.74 0.86 1.02 1.01 1.01 1.00 1.15 1.06 0.93 0.88 0.76 0.49 0.55 0.76 0.89 0.91 0.88 0.84 0.91 0.77 0.62 0.45 0.50 0.46 0.29 0.33 0.45 0.47 0.45 0.64 0.85 0.83 0.79 0.74 0.68 0.66 0.66
0.59 0.54 0.49 0.46 0.45 0.50 0.63 0.80 0.90 1.01 1.11 1.07 1.03 1.03 1.01 0.89 0.70 0.57 0.61 0.63 0.69 0.75 0.68 0.71 0.70 0.53 0.44 0.43 0.42 0.33 0.28 0.33 0.42 0.49 0.54 0.77 0.96 0.95 0.79 0.70 0.62 0.58 0.59
0.51 0.53 0.47 0.38 0.37 0.38 0.46 0.55 0.66 0.80 0.92 0.96 0.81 0.77 0.85 0.87 0.75 0.62 0.62 0.61 0.62 0.66 0.74 0.78 0.76 0.65 0.56 0.50 0.47 0.46 0.46 0.46 0.50 0.57 0.68 0.82 1.08 0.99 0.81 0.70 0.64 0.59 0.59
0.47 0.53 0.50 0.42 0.40 0.38 0.41 0.43 0.44 0.63 0.80 0.91 0.92 0.80 0.77 0.79 0.77 0.70 0.59 0.61 0.56 0.59 0.65 0.69 0.71 0.70 0.71 0.67 0.65 0.64 0.63 0.58 0.56 0.55 0.67 0.87 1.20 1.34 1.11 0.89 0.71 0.63 0.62
0.44 0.53 0.53 0.52 0.51 0.46 0.40 0.40 0.43 0.51 0.63 0.72 0.87 0.88 0.82 0.75 0.71 0.73 0.68 0.69 0.70 0.68 0.68 0.67 0.65 0.75 0.77 0.72 0.68 0.66 0.62 0.53 0.54 0.61 0.73 0.85 0.90 1.06 1.25 1.19 1.02 0.87 0.74
0.43 0.46 0.46 0.47 0.54 0.54 0.52 0.51 0.51 0.59 0.62 0.69 0.76 0.77 0.84 0.74 0.68 0.73 0.76 0.76 0.77 0.78 0.78 0.79 0.78 0.84 0.78 0.76 0.74 0.67 0.60 0.53 0.52 0.60 0.63 0.70 0.60 0.57 0.81 1.10 1.20 1.10 0.99
0.38 0.38 0.43 0.42 0.49 0.57 0.63 0.66 0.70 0.73 0.77 0.84 0.81 0.77 0.77 0.73 0.70 0.79 0.80 0.83 0.89 0.81 0.79 0.85 0.90 0.93 0.89 0.87 0.85 0.71 0.57 0.57 0.56 0.58 0.63 0.66 0.62 0.47 0.51 0.61 0.73 0.85 1.04
0.36 0.37 0.41 0.45 0.50 0.57 0.63 0.73 0.83 0.91 0.99 1.13 1.10 1.05 0.99 0.87 0.88 0.95 0.99 1.00 1.03 1.04 0.96 0.85 0.88 0.94 1.00 0.98 0.88 0.79 0.65 0.62 0.65 0.63 0.75 0.74 0.67 0.55 0.55 0.45 0.43 0.47 0.62
0.35 0.37 0.41 0.48 0.56 0.67 0.84 1.06 1.28 1.36 1.53 1.75 1.69 1.54 1.36 1.19 1.15 1.25 1.23 1.18 1.23 1.31 1.31 1.10 1.13 1.08 1.02 1.06 0.97 0.89 0.84 0.76 0.76 0.76 0.77 0.80 0.82 0.68 0.64 0.52 0.42 0.30 0.37
0.25 0.29 0.36 0.41 0.51 0.62 0.85 1.18 1.62 1.83 1.96 1.98 2.00 1.90 1.69 1.48 1.49 1.64 1.60 1.58 1.57 1.53 1.49 1.43 1.53 1.48 1.22 1.12 1.26 1.21 1.08 0.91 0.84 0.80 0.78 0.85 0.94 0.89 0.86 0.70 0.58 0.43 0.33
0.15 0.17 0.27 0.33 0.42 0.57 0.85 1.17 1.52 1.88 1.97 1.99 2.01 1.97 1.83 1.71 1.71 1.75 1.93 2.03 1.99 2.07 2.04 1.85 1.95 1.95 1.63 1.39 1.54 1.77 1.50 1.30 0.92 0.80 0.83 0.84 0.93 1.02 1.05 0.89 0.73 0.59 0.49
0.12 0.12 0.18 0.24 0.39 0.67 1.01 1.33 1.53 1.82 1.95 2.02 1.98 1.99 2.01 1.97 1.87 1.89 1.99 2.15 2.16 2.22 2.28 2.34 2.28 2.33 2.11 1.76 1.66 1.87 1.66 1.52 1.32 0.91 0.84 0.95 1.03 1.10 1.15 1.13 0.98 0.78 0.67
0.09 0.11 0.14 0.20 0.40 0.74 1.08 1.34 1.59 1.94 2.05 2.03 2.07 2.06 2.08 2.10 2.06 2.13 2.14 2.24 2.27 2.27 2.34 2.44 2.40 2.47 2.51 2.15 1.89 1.68 1.48 1.43 1.48 1.24 1.00 0.97 1.10 1.13 1.17 1.20 1.15 1.01 0.86
0.10 0.13 0.20 0.34 0.52 0.78 0.99 1.24 1.60 1.86 1.99 2.14 2.09 2.07 2.08 2.15 2.17 2.20 2.26 2.41 2.39 2.35 2.32 2.52 2.55 2.62 2.54 2.46 2.30 2.12 1.96 1.67 1.30 1.34 1.33 1.17 1.10 1.02 1.06 1.19 1.26 1.21 1.06
0.18 0.24 0.33 0.49 0.64 0.85 1.02 1.22 1.41 1.67 1.82 1.97 2.07 2.02 2.03 2.09 2.20 2.09 2.02 2.14 2.20 2.23 2.22 2.38 2.53 2.65 2.62 2.64 2.54 2.24 2.14 1.99 1.60 1.52 1.39 1.28 1.27 1.10 1.03 1.06 1.10 1.12 1.13